22.2.2020 Tornio Ralli

Tulokset  Keskeyttäneet (52)  AT-pisteet (7)  Tilastot Lähtöön oikeutettujen lista CSV


 << EK4 EK6 >> Yleiskilpailun tulos
Tornio Ralli
22.2.2020
EK 5, LUOKKATULOKSET
R-Rallicup
Tornion Ralliharrastajat
Kehäkaantie
 
Luokka 1 , Historic gr2,4, a alle 1350 60-90 vm. 2wd , Lähti:2
EK5, 5.26km, nopein: 59.8km/h
SijNroNimiTulosEro
1112Janne Solatie €5:16,5
Tulos EK 5 jälkeen
SijNroNimiTulosEro
1112Janne Solatie €26:28,2


Keskeyttäneet: 111, Jussi Lappalainen €, 3B, Tekninen vika
 
Luokka 3 , F, A, HR alle 1650 2wd , Lähti:14
EK5, 5.26km, nopein: 77.1km/h
SijNroNimiTulosEro
1120Juho Nykänen €4:05,7
2122Marko Mansikkamäki €4:11,55,8
3127Tommi Lämsä €4:11,65,9
4130Mikko Konola4:11,96,2
5123Tomi Saari €4:12,26,5
6121Mikko Kurkela €4:12,46,7
7124Mika Kaapu €4:13,78,0
8125Sami Jokinen €4:17,311,6
9126Jani Kuivas €4:18,112,4
10128Petri Koski4:22,016,3
11133jani seppälä5:54,71:49,0
Tulos EK 5 jälkeen
SijNroNimiTulosEro
1121Mikko Kurkela €21:12,0
2120Juho Nykänen €21:14,9 2,9
3122Marko Mansikkamäki €21:25,0 13,0
4130Mikko Konola21:36,2 24,2
5124Mika Kaapu €21:41,0 29,0
6126Jani Kuivas €22:00,7 48,7
7123Tomi Saari €22:03,0 51,0
8125Sami Jokinen €22:14,5 1:02,5
9128Petri Koski22:30,7 1:18,7
10127Tommi Lämsä €22:36,8 1:24,8
11133jani seppälä23:42,1 2:30,1


Keskeyttäneet: 129, Reino Karhu, 3B, Tekninen vika  -   131, Timo Kukkohovi, 3A, Tekninen vika  -   132, Riku Petteri Koivula, 2A, Tekninen vika
 
Luokka 4 , F, A, HR alle 2100 2wd , Lähti:16
EK5, 5.26km, nopein: 73.6km/h
SijNroNimiTulosEro
1136Esa Ketomäki €4:17,2
2148Jussi Teppo4:17,2
3149Janne Peteri4:17,30,1
4143Lauri Hiltunen4:18,81,6
5134Vesa Pulkkinen €4:20,23,0
6137Kimmo Tukia4:23,66,4
7138Tomi Riihimäki €4:26,79,5
8145Heikki Tanninen4:31,013,8
9141Tomi Tauriainen4:31,914,7
Tulos EK 5 jälkeen
SijNroNimiTulosEro
1148Jussi Teppo21:54,6
2149Janne Peteri22:01,0 6,4
3136Esa Ketomäki €22:01,4 6,8
4143Lauri Hiltunen22:20,7 26,1
5138Tomi Riihimäki €22:34,0 39,4
6145Heikki Tanninen22:55,6 1:01,0
7137Kimmo Tukia23:00,3 1:05,7
8134Vesa Pulkkinen €24:13,0 2:18,4
9141Tomi Tauriainen36:24,7 14:30,1


Keskeyttäneet: 135, Jari Korhonen €, 4B, Tekninen vika  -   139, Hannu Blek, 2B, Tekninen vika  -   140, Janne Valkama, 3B, Tekninen vika  -   142, Mika Posti, 2A, Tekninen vika  -   144, Manu Lampela, 4A, Tekninen vika  -   146, Matias Salmela, 1B, Tekninen vika  -   147, Janne Hanhela, 3B, Tekninen vika
 
Luokka 5 , F, A, HR yli 2100 2wd , Lähti:23
EK5, 5.26km, nopein: 76.4km/h
SijNroNimiTulosEro
1162Harri Kervinen4:07,9
2169Mikko Hast4:08,00,1
3151Sami Ahonen €4:14,26,3
4168Pauli Junttila4:14,36,4
5150Kari-Pekka Saari €4:14,46,5
6161Jarmo Blinnikka4:19,811,9
7159Timo Hyyryläinen4:20,312,4
8163Tuomo Palola4:27,019,1
9160Jarmo Hosionaho4:27,819,9
10170Konsta Ollikainen4:28,120,2
11166Niko Pihlajaniemi4:30,422,5
12154Markus Mäkelä €4:31,323,4
13165Hermanni Ylikärppä4:33,125,2
14171Jari Mällinen4:33,225,3
15153Jani Rihu €4:33,825,9
16164Erkki Hyytinen4:46,238,3
Tulos EK 5 jälkeen
SijNroNimiTulosEro
1162Harri Kervinen21:18,4
2151Sami Ahonen €21:27,3 8,9
3169Mikko Hast21:32,9 14,5
4150Kari-Pekka Saari €21:35,7 17,3
5168Pauli Junttila21:46,7 28,3
6159Timo Hyyryläinen22:03,4 45,0
7161Jarmo Blinnikka22:21,3 1:02,9
8163Tuomo Palola22:38,4 1:20,0
9160Jarmo Hosionaho22:51,3 1:32,9
10153Jani Rihu €22:55,3 1:36,9
11154Markus Mäkelä €23:09,2 1:50,8
12170Konsta Ollikainen23:24,4 2:06,0
13165Hermanni Ylikärppä23:32,9 2:14,5
14166Niko Pihlajaniemi23:47,3 2:28,9
15171Jari Mällinen23:48,2 2:29,8
16164Erkki Hyytinen24:22,1 3:03,7


Keskeyttäneet: 152, Jarkko Jokiperä €, 2A, Tekninen vika  -   155, Jirka Lund €, 3A, Tekninen vika  -   156, Tero Pellinen €, 3B, Ulosajo  -   157, pasi hirvikoski €, 3A, Tekninen vika  -   158, Roni Slotte, 2A, Tekninen vika  -   167, Urpo Kettunen, 5A, Tekninen vika  -   172, joni-petteri kaarlela, 4A, Tekninen vika
 
Luokka 6 , Senior 50 v. cc vapaa 2wd , Lähti:15
EK5, 5.26km, nopein: 73.6km/h
SijNroNimiTulosEro
1174Pauli Sinkkonen €4:17,4
2173petteri rantanen €4:18,71,3
3175Markku Tuoriniemi €4:23,66,2
4186Heikki Kauppi4:26,18,7
5177Timo Ahonen €4:33,115,7
6180Arto Viinikka €4:36,419,0
7184Ilkka Alaoja4:38,020,6
8183Petri Poutanen4:40,823,4
9181Erkki Lindholm4:46,929,5
10178jari muhonen €4:49,432,0
11179Eero Ojakoski €4:59,942,5
Tulos EK 5 jälkeen
SijNroNimiTulosEro
1173petteri rantanen €22:08,2
2175Markku Tuoriniemi €22:11,3 3,1
3174Pauli Sinkkonen €22:20,5*12,3
4186Heikki Kauppi22:41,7 33,5
5177Timo Ahonen €23:18,6 1:10,4
6180Arto Viinikka €23:58,3 1:50,1
7183Petri Poutanen24:15,2 2:07,0
8184Ilkka Alaoja24:27,4 2:19,2
9178jari muhonen €24:37,8 2:29,6
10179Eero Ojakoski €26:13,9 4:05,7
11181Erkki Lindholm26:30,0*4:21,8


Keskeyttäneet: 176, Pasi Kämäräinen €, 2B, Tekninen vika  -   182, Heikki Siitari, 4A, Tekninen vika  -   185, Tapio Alikoski, 3B, Tekninen vika  -   187, Heikki Hosionho, 5A, Tekninen vika
*AT-pisteet: 174, Pauli Sinkkonen €, 4L, Vilppilähtö, 10,0  -   181, Erkki Lindholm, 1L, Vilppilähtö, 10,0
 
Luokka 7 , V-1600 alle 1650 gr1, N ja V1600 2wd , Lähti:17
EK5, 5.26km, nopein: 72.9km/h
SijNroNimiTulosEro
116Jani Ruuskanen4:19,6
24Joonas Tonteri €4:19,80,2
3204Ville-Pekka Hast4:26,36,7
46Timo Aspegren4:28,89,2
514Asko Laukkanen4:30,110,5
69Pulju Mika4:32,412,8
712Lasse Sirviö4:36,116,5
87Sami Turpeenoja4:36,817,2
911Pertti Kallio4:36,917,3
105Henry Roivainen4:40,220,6
113Janne Rissanen €4:40,420,8
121Niko Törmä €4:41,521,9
1313Esa Ronkainen4:42,022,4
1415Kari Nissilä4:43,824,2
158Markus Väätänen4:53,834,2
Tulos EK 5 jälkeen
SijNroNimiTulosEro
14Joonas Tonteri €22:20,1
2204Ville-Pekka Hast22:33,3 13,2
316Jani Ruuskanen22:53,5 33,4
414Asko Laukkanen23:11,5 51,4
56Timo Aspegren23:30,6 1:10,5
612Lasse Sirviö23:34,4 1:14,3
77Sami Turpeenoja23:37,8 1:17,7
811Pertti Kallio23:45,4 1:25,3
99Pulju Mika23:46,8 1:26,7
105Henry Roivainen23:53,5 1:33,4
111Niko Törmä €24:09,8 1:49,7
123Janne Rissanen €24:26,8 2:06,7
1315Kari Nissilä24:39,5 2:19,4
148Markus Väätänen25:09,9 2:49,8
1513Esa Ronkainen31:14,9 8:54,8


Keskeyttäneet: 2, Mika Ilomäki €, 3A, Tekninen vika  -   10, Juha Lindström, 4A, Tekninen vika
 
Luokka 8 , V-2000 alle 2050 gr1, N, V2000 2wd , Lähti:7
EK5, 5.26km, nopein: 73.7km/h
SijNroNimiTulosEro
119Kari Mutkala €4:17,1
220Saku Stenberg4:17,80,7
317Jarno Pentinpuro €4:20,53,4
424Mikko Salmela4:33,916,8
522Janne Kortelainen4:36,519,4
623Raimo Romppainen4:52,935,8
Tulos EK 5 jälkeen
SijNroNimiTulosEro
119Kari Mutkala €22:10,5
220Saku Stenberg22:21,5 11,0
317Jarno Pentinpuro €22:24,5 14,0
424Mikko Salmela23:22,5 1:12,0
522Janne Kortelainen23:50,8 1:40,3
623Raimo Romppainen24:16,7*2:06,2


Keskeyttäneet: 21, Leskelä Jouko, 2A, Tekninen vika
*AT-pisteet: 23, Raimo Romppainen, 1L, Vilppilähtö, 10,0
 
Luokka 9 , Nuoret V-1600 2wd , Lähti:11
EK5, 5.26km, nopein: 69.4km/h
SijNroNimiTulosEro
135Valtteri Koski4:32,8
231Miro Sakko4:32,90,1
332Veeti Pulkkinnen4:37,04,2
430Leevi Lassila4:37,34,5
534Atte Kari4:41,08,2
627Aatu hirvikoski €4:46,713,9
726Nuutti Korhonen €4:53,320,5
829Aapo Erkkilä4:56,323,5
933Joakim Goman4:57,124,3
1025Tomi Tiilikainen €10:06,95:34,1
Tulos EK 5 jälkeen
SijNroNimiTulosEro
135Valtteri Koski23:06,4
231Miro Sakko23:23,0 16,6
330Leevi Lassila23:36,4 30,0
432Veeti Pulkkinnen23:38,8 32,4
534Atte Kari24:09,1 1:02,7
627Aatu hirvikoski €24:29,7 1:23,3
726Nuutti Korhonen €25:11,2 2:04,8
829Aapo Erkkilä25:15,3 2:08,9
933Joakim Goman25:33,4 2:27,0
1025Tomi Tiilikainen €28:43,8 5:37,4


Keskeyttäneet: 28, Jesse Eteläniemi, 2B, Ulosajo
 
Luokka 11 , 4wd cc vapaa Kaikki ikäkaudet , Lähti:10
EK5, 5.26km, nopein: 81.8km/h
SijNroNimiTulosEro
139Joni Tolonen €3:51,6
242Tatu Soisalo €3:56,85,2
347Miikka Saari4:02,510,9
449Kalle Viitanen4:04,813,2
541sauli väisänen €4:09,517,9
645Ilkka Palomaa4:46,554,9
746Jukka Lappalainen13:51,610:00,0
Tulos EK 5 jälkeen
SijNroNimiTulosEro
139Joni Tolonen €20:01,6
249Kalle Viitanen20:27,8 26,2
347Miikka Saari20:31,9 30,3
441sauli väisänen €20:40,0 38,4
542Tatu Soisalo €20:51,9*50,3
645Ilkka Palomaa32:58,6 12:57,0
746Jukka Lappalainen42:05,9 22:04,3


Keskeyttäneet: 40, Petri Ylinen €, 4A, Tekninen vika  -   43, Vesa-Pekka Palokangas €, 5A, Tekninen vika  -   48, Timo Luoto, 3A, Tekninen vika
*AT-pisteet: 42, Tatu Soisalo €, 2L, Vilppilähtö, 10,0  -   42, Tatu Soisalo €, 1L, Vilppilähtö, 10,0
 
Luokka 12 , 4 wd A, Fin-R cc vapaa Nuotti , Lähti:19
EK5, 5.26km, nopein: 85.3km/h
SijNroNimiTulosEro
150Kai Hyttinen €3:41,9
259Anssi-Jukka Rytkönen3:48,66,7
351jukka olkoniemi3:50,38,4
465Ari-Pekka Koivisto3:51,79,8
566Markku Viitanen3:52,210,3
653Miikka Vuokila3:52,510,6
755Sami Mukkala3:52,610,7
863Juha Karilainen3:52,610,7
967Risto Lokka3:54,312,4
1064Kai Penttilä3:58,616,7
1152Yrjö Martti3:58,816,9
1261Sami Valme4:07,725,8
1354Miikka Kaskinen4:11,729,8
1460Markku Alasuutari4:11,729,8
1558Mikko Suvinen4:13,731,8
1668Kari Heinonen4:29,047,1
Tulos EK 5 jälkeen
SijNroNimiTulosEro
150Kai Hyttinen €18:36,7
251jukka olkoniemi19:02,3 25,6
359Anssi-Jukka Rytkönen19:05,6 28,9
465Ari-Pekka Koivisto19:14,1 37,4
567Risto Lokka19:16,7 40,0
666Markku Viitanen19:27,0 50,3
753Miikka Vuokila19:34,1 57,4
855Sami Mukkala19:45,1 1:08,4
963Juha Karilainen19:47,0 1:10,3
1064Kai Penttilä19:55,6 1:18,9
1152Yrjö Martti20:02,1 1:25,4
1261Sami Valme20:29,2 1:52,5
1360Markku Alasuutari20:57,2 2:20,5
1454Miikka Kaskinen21:02,8 2:26,1
1558Mikko Suvinen21:11,0 2:34,3
1668Kari Heinonen22:36,6 3:59,9


Keskeyttäneet: 56, Jukka Ikonen, 4A, Tekninen vika  -   57, Vesa Luokkanen, 4A, Tekninen vika  -   62, Mika Pyyny, 5A, Tekninen vika
 
Luokka 13 , R5, Lite-R cc vapaa Nuotti , Lähti:1
EK5, 5.26km, nopein: 80.2km/h
SijNroNimiTulosEro
169Jonna Olkoniemi3:56,2
Tulos EK 5 jälkeen
SijNroNimiTulosEro
169Jonna Olkoniemi19:48,6

 
Luokka 15 , F, A, HR yli 1650 2wd Nuotti , Lähti:20
EK5, 5.26km, nopein: 78.6km/h
SijNroNimiTulosEro
174Topi Vänttilä €4:01,0
286Ville Hanhisuanto4:03,12,1
376Juho Pietikäinen €4:06,45,4
493Kalle Markkanen4:07,16,1
584Jari Saarnio4:07,66,6
675Max Karhapää €4:09,98,9
785Henri Hökkä4:14,513,5
888Jari Kinnunen4:16,415,4
979Jari Suontausta €4:17,716,7
1090Jaakko hirvonsalo4:17,916,9
1189Sauli Tuomaala4:20,819,8
1282Jouni Moisala4:22,521,5
1383Raimo Tunkkari4:28,727,7
1481Toni Piiroinen €4:30,529,5
1587arto kylmäluoma4:33,132,1
1694Vesa Törmä4:44,843,8
1778Markku Hakkarainen €4:47,146,1
Tulos EK 5 jälkeen
SijNroNimiTulosEro
186Ville Hanhisuanto20:14,5
274Topi Vänttilä €20:24,3 9,8
376Juho Pietikäinen €20:32,2 17,7
475Max Karhapää €20:51,3 36,8
593Kalle Markkanen21:23,4 1:08,9
688Jari Kinnunen21:27,9 1:13,4
784Jari Saarnio21:29,6 1:15,1
879Jari Suontausta €21:57,0 1:42,5
985Henri Hökkä22:03,4 1:48,9
1090Jaakko hirvonsalo22:05,6 1:51,1
1182Jouni Moisala22:05,8 1:51,3
1289Sauli Tuomaala22:36,2 2:21,7
1381Toni Piiroinen €23:09,9 2:55,4
1487arto kylmäluoma23:40,9 3:26,4
1583Raimo Tunkkari24:01,2 3:46,7
1678Markku Hakkarainen €24:24,8 4:10,3
1794Vesa Törmä24:33,2 4:18,7


Keskeyttäneet: 77, Henrik Salo €, 4A, Tekninen vika  -   80, Juuso Vormisto €, 5A, Tekninen vika  -   92, Janne Seluska, 3A, Tekninen vika
 
Luokka 16 , Historic cc vapaa 2wd Nuotti , Lähti:2
EK5, 5.26km, nopein: 70.6km/h
SijNroNimiTulosEro
196Osmo Polojärvi4:28,4
295Juhani Pelkonen4:49,821,4
Tulos EK 5 jälkeen
SijNroNimiTulosEro
196Osmo Polojärvi22:42,1
295Juhani Pelkonen24:38,7 1:56,6

 
Luokka 17 , BMW orginal 2wd , Lähti:9
EK5, 5.26km, nopein: 72.6km/h
SijNroNimiTulosEro
198John Ruotsalainen €4:21,0
299Jarno Saari €4:21,80,8
397Ville Pulkkinen €4:22,41,4
4105RIKU KOSKI4:23,42,4
5103Ilpo Laitinen4:23,82,8
6100Sami Laurila4:24,03,0
7101Jukka Anttila4:25,04,0
8104Pauli Mikkola4:32,411,4
9102Juha Näsi4:48,627,6
Tulos EK 5 jälkeen
SijNroNimiTulosEro
1100Sami Laurila22:01,5
298John Ruotsalainen €22:08,8 7,3
3105RIKU KOSKI22:13,7 12,2
499Jarno Saari €22:19,5 18,0
597Ville Pulkkinen €22:28,1 26,6
6103Ilpo Laitinen22:42,6 41,1
7101Jukka Anttila23:00,6 59,1
8104Pauli Mikkola23:54,1 1:52,6
9102Juha Näsi24:20,5 2:19,0

 
Luokka 20 , Proto cc vapaa 2wd turbot , Lähti:3
EK5, 5.26km, nopein: 73.3km/h
SijNroNimiTulosEro
1108Jarno Puupponen €4:18,2
2110Mika Runtti4:21,43,2
Tulos EK 5 jälkeen
SijNroNimiTulosEro
1110Mika Runtti22:02,9
2108Jarno Puupponen €22:12,3 9,4


Keskeyttäneet: 109, Kari Herronen €, 2B, Tekninen vika